Time,TemperatureF,DewpointF,PressureIn,WindDirection,WindDirectionDegrees,WindSpeedMPH,WindSpeedGustMPH,Humidity,HourlyPrecipIn,Conditions,Clouds,dailyrainin,SoftwareType,DateUTC
2013-02-12 00:01:00,33.0,27.0,-100.00,West,265,11.0,18.0,77,-99.99,,,-99.99,,2013-02-12 05:01:00,
2013-02-12 00:11:00,33.0,27.0,-100.00,West,265,12.0,20.0,77,-99.99,,,-99.99,,2013-02-12 05:11:00,
2013-02-12 00:21:00,33.0,27.0,-100.00,WNW,295,11.0,21.0,77,-99.99,,,-99.99,,2013-02-12 05:21:00,
2013-02-12 00:32:00,33.0,27.0,-100.00,West,280,13.0,25.0,77,-99.99,,,-99.99,,2013-02-12 05:32:00,
2013-02-12 00:42:00,33.0,26.0,-100.00,West,275,12.0,25.0,75,-99.99,,,-99.99,,2013-02-12 05:42:00,
2013-02-12 00:52:00,33.0,26.0,-100.00,WNW,290,11.0,24.0,74,-99.99,,,-99.99,,2013-02-12 05:52:00,
2013-02-12 01:02:00,33.0,26.0,-100.00,West,270,10.0,21.0,74,-99.99,,,-99.99,,2013-02-12 06:02:00,
2013-02-12 01:12:00,33.0,26.0,-100.00,WNW,295,11.0,20.0,74,-99.99,,,-99.99,,2013-02-12 06:12:00,
2013-02-12 01:22:00,33.0,26.0,-100.00,West,275,9.0,21.0,74,-99.99,,,-99.99,,2013-02-12 06:22:00,
2013-02-12 01:32:00,33.0,26.0,-100.00,West,275,9.0,18.0,75,-99.99,,,-99.99,,2013-02-12 06:32:00,
2013-02-12 01:42:00,33.0,26.0,-100.00,West,280,11.0,17.0,75,-99.99,,,-99.99,,2013-02-12 06:42:00,
2013-02-12 01:51:00,33.0,26.0,-100.00,West,280,9.0,14.0,75,-99.99,,,-99.99,,2013-02-12 06:51:00,
2013-02-12 02:02:00,33.0,26.0,-100.00,WSW,250,6.0,16.0,75,-99.99,,,-99.99,,2013-02-12 07:02:00,
2013-02-12 02:11:00,33.0,26.0,-100.00,West,275,11.0,17.0,75,-99.99,,,-99.99,,2013-02-12 07:11:00,
2013-02-12 02:21:00,33.0,26.0,-100.00,West,270,9.0,20.0,75,-99.99,,,-99.99,,2013-02-12 07:21:00,
2013-02-12 02:32:00,33.0,26.0,-100.00,West,270,9.0,14.0,75,-99.99,,,-99.99,,2013-02-12 07:32:00,
2013-02-12 02:42:00,33.0,26.0,-100.00,WNW,285,9.0,18.0,75,-99.99,,,-99.99,,2013-02-12 07:42:00,
2013-02-12 02:51:00,33.0,26.0,-100.00,WNW,285,12.0,19.0,75,-99.99,,,-99.99,,2013-02-12 07:51:00,
2013-02-12 03:01:00,33.0,26.0,-100.00,West,275,12.0,19.0,76,-99.99,,,-99.99,,2013-02-12 08:01:00,
2013-02-12 03:11:00,33.0,26.0,-100.00,WNW,285,7.0,17.0,76,-99.99,,,-99.99,,2013-02-12 08:11:00,
2013-02-12 03:21:00,32.0,26.0,-100.00,WNW,290,11.0,19.0,77,-99.99,,,-99.99,,2013-02-12 08:21:00,
2013-02-12 03:32:00,32.0,26.0,-100.00,WNW,285,12.0,19.0,77,-99.99,,,-99.99,,2013-02-12 08:32:00,
2013-02-12 03:42:00,32.0,26.0,-100.00,West,275,13.0,19.0,76,-99.99,,,-99.99,,2013-02-12 08:42:00,
2013-02-12 03:52:00,32.0,26.0,-100.00,West,270,13.0,19.0,76,-99.99,,,-99.99,,2013-02-12 08:52:00,
2013-02-12 04:02:00,32.0,25.0,-100.00,West,275,6.0,18.0,76,-99.99,,,-99.99,,2013-02-12 09:02:00,
2013-02-12 04:11:00,32.0,26.0,-100.00,West,265,10.0,17.0,77,-99.99,,,-99.99,,2013-02-12 09:11:00,
2013-02-12 04:21:00,32.0,26.0,-100.00,West,265,10.0,17.0,77,-99.99,,,-99.99,,2013-02-12 09:21:00,
2013-02-12 04:32:00,32.0,26.0,-100.00,WNW,285,11.0,17.0,77,-99.99,,,-99.99,,2013-02-12 09:32:00,
2013-02-12 04:42:00,32.0,26.0,-100.00,West,270,7.0,16.0,77,-99.99,,,-99.99,,2013-02-12 09:42:00,
2013-02-12 04:51:00,32.0,26.0,-100.00,West,270,8.0,18.0,78,-99.99,,,-99.99,,2013-02-12 09:51:00,
2013-02-12 05:01:00,32.0,26.0,-100.00,WSW,250,8.0,21.0,78,-99.99,,,-99.99,,2013-02-12 10:01:00,
2013-02-12 05:11:00,32.0,26.0,-100.00,West,270,12.0,19.0,78,-99.99,,,-99.99,,2013-02-12 10:11:00,
2013-02-12 05:21:00,32.0,26.0,-100.00,WNW,285,9.0,16.0,78,-99.99,,,-99.99,,2013-02-12 10:21:00,
2013-02-12 05:32:00,32.0,26.0,-100.00,West,260,11.0,15.0,78,-99.99,,,-99.99,,2013-02-12 10:32:00,
2013-02-12 05:43:00,32.0,26.0,-100.00,West,265,7.0,14.0,78,-99.99,,,-99.99,,2013-02-12 10:43:00,
2013-02-12 05:51:00,32.0,26.0,-100.00,West,280,7.0,17.0,79,-99.99,,,-99.99,,2013-02-12 10:51:00,
2013-02-12 06:01:00,32.0,26.0,-100.00,WNW,285,8.0,16.0,79,-99.99,,,-99.99,,2013-02-12 11:01:00,
2013-02-12 06:11:00,32.0,26.0,-100.00,WNW,285,12.0,16.0,79,-99.99,,,-99.99,,2013-02-12 11:11:00,
2013-02-12 06:22:00,32.0,26.0,-100.00,WSW,250,6.0,18.0,79,-99.99,,,-99.99,,2013-02-12 11:22:00,
2013-02-12 06:32:00,32.0,26.0,-100.00,West,275,9.0,13.0,79,-99.99,,,-99.99,,2013-02-12 11:32:00,
2013-02-12 06:42:00,32.0,26.0,-100.00,West,275,9.0,13.0,79,-99.99,,,-99.99,,2013-02-12 11:42:00,
2013-02-12 06:52:00,32.0,26.0,-100.00,WNW,300,13.0,20.0,79,-99.99,,,-99.99,,2013-02-12 11:52:00,
2013-02-12 07:02:00,32.0,26.0,-100.00,West,280,7.0,19.0,79,-99.99,,,-99.99,,2013-02-12 12:02:00,
2013-02-12 07:11:00,32.0,26.0,-100.00,West,270,7.0,12.0,79,-99.99,,,-99.99,,2013-02-12 12:11:00,
2013-02-12 07:22:00,32.0,26.0,-100.00,West,270,4.0,10.0,79,-99.99,,,-99.99,,2013-02-12 12:22:00,
2013-02-12 07:32:00,32.0,26.0,-100.00,West,260,7.0,12.0,80,-99.99,,,-99.99,,2013-02-12 12:32:00,
2013-02-12 07:42:00,32.0,27.0,-100.00,West,265,9.0,14.0,80,-99.99,,,-99.99,,2013-02-12 12:42:00,
2013-02-12 07:52:00,31.0,26.0,-100.00,West,280,6.0,12.0,80,-99.99,,,-99.99,,2013-02-12 12:52:00,
2013-02-12 08:02:00,31.0,26.0,-100.00,WNW,285,9.0,14.0,81,-99.99,,,-99.99,,2013-02-12 13:02:00,
2013-02-12 08:11:00,31.0,26.0,-100.00,West,270,10.0,16.0,81,-99.99,,,-99.99,,2013-02-12 13:11:00,
2013-02-12 08:22:00,31.0,26.0,-100.00,West,275,7.0,17.0,81,-99.99,,,-99.99,,2013-02-12 13:22:00,
2013-02-12 08:32:00,31.0,26.0,-100.00,West,280,7.0,11.0,81,-99.99,,,-99.99,,2013-02-12 13:32:00,
2013-02-12 08:42:00,31.0,26.0,-100.00,West,280,9.0,16.0,81,-99.99,,,-99.99,,2013-02-12 13:42:00,
2013-02-12 08:52:00,31.0,26.0,-100.00,West,270,6.0,13.0,81,-99.99,,,-99.99,,2013-02-12 13:52:00,
2013-02-12 09:01:00,31.0,26.0,-100.00,West,265,5.0,12.0,81,-99.99,,,-99.99,,2013-02-12 14:01:00,
2013-02-12 09:12:00,31.0,26.0,-100.00,West,275,4.0,12.0,81,-99.99,,,-99.99,,2013-02-12 14:12:00,
2013-02-12 09:21:00,31.0,26.0,-100.00,West,270,9.0,14.0,81,-99.99,,,-99.99,,2013-02-12 14:21:00,
2013-02-12 09:32:00,31.0,26.0,-100.00,West,280,7.0,13.0,81,-99.99,,,-99.99,,2013-02-12 14:32:00,
2013-02-12 09:42:00,31.0,26.0,-100.00,WNW,290,7.0,14.0,80,-99.99,,,-99.99,,2013-02-12 14:42:00,
2013-02-12 09:52:00,31.0,26.0,-100.00,WSW,250,6.0,13.0,80,-99.99,,,-99.99,,2013-02-12 14:52:00,
2013-02-12 10:02:00,31.0,26.0,-100.00,West,280,4.0,11.0,80,-99.99,,,-99.99,,2013-02-12 15:02:00,
2013-02-12 10:11:00,31.0,26.0,-100.00,West,270,6.0,10.0,80,-99.99,,,-99.99,,2013-02-12 15:11:00,
2013-02-12 10:21:00,32.0,27.0,-100.00,WNW,295,4.0,12.0,80,-99.99,,,-99.99,,2013-02-12 15:21:00,
2013-02-12 10:32:00,32.0,27.0,-100.00,West,280,6.0,16.0,80,-99.99,,,-99.99,,2013-02-12 15:32:00,
2013-02-12 10:42:00,31.0,26.0,-100.00,West,275,9.0,16.0,80,-99.99,,,-99.99,,2013-02-12 15:42:00,
2013-02-12 10:52:00,32.0,27.0,-100.00,West,275,6.0,12.0,80,-99.99,,,-99.99,,2013-02-12 15:52:00,
2013-02-12 11:01:00,32.0,27.0,-100.00,West,270,6.0,11.0,80,-99.99,,,-99.99,,2013-02-12 16:01:00,
2013-02-12 11:11:00,32.0,26.0,-100.00,SW,235,7.0,13.0,80,-99.99,,,-99.99,,2013-02-12 16:11:00,
2013-02-12 11:22:00,32.0,27.0,-100.00,WNW,295,9.0,14.0,79,-99.99,,,-99.99,,2013-02-12 16:22:00,
2013-02-12 11:32:00,32.0,26.0,-100.00,West,270,6.0,14.0,78,-99.99,,,-99.99,,2013-02-12 16:32:00,
2013-02-12 11:42:00,33.0,26.0,-100.00,West,265,6.0,12.0,77,-99.99,,,-99.99,,2013-02-12 16:42:00,
2013-02-12 11:51:00,33.0,27.0,-100.00,WNW,285,7.0,9.0,77,-99.99,,,-99.99,,2013-02-12 16:51:00,
2013-02-12 12:01:00,32.0,26.0,-100.00,West,260,6.0,13.0,78,-99.99,,,-99.99,,2013-02-12 17:01:00,
2013-02-12 12:12:00,32.0,27.0,-100.00,West,260,7.0,12.0,79,-99.99,,,-99.99,,2013-02-12 17:12:00,
2013-02-12 12:21:00,33.0,27.0,-100.00,WSW,250,7.0,12.0,79,-99.99,,,-99.99,,2013-02-12 17:21:00,
2013-02-12 12:32:00,33.0,27.0,-100.00,West,265,7.0,12.0,78,-99.99,,,-99.99,,2013-02-12 17:32:00,
2013-02-12 12:42:00,33.0,27.0,-100.00,WNW,285,7.0,12.0,77,-99.99,,,-99.99,,2013-02-12 17:42:00,
2013-02-12 12:52:00,33.0,27.0,-100.00,West,265,9.0,14.0,77,-99.99,,,-99.99,,2013-02-12 17:52:00,
2013-02-12 13:02:00,33.0,27.0,-100.00,West,260,7.0,12.0,76,-99.99,,,-99.99,,2013-02-12 18:02:00,
2013-02-12 13:11:00,34.0,27.0,-100.00,West,270,7.0,14.0,75,-99.99,,,-99.99,,2013-02-12 18:11:00,
2013-02-12 13:23:00,34.0,26.0,-100.00,SW,230,7.0,12.0,74,-99.99,,,-99.99,,2013-02-12 18:23:00,
2013-02-12 13:32:00,35.0,27.0,-100.00,WNW,285,6.0,13.0,74,-99.99,,,-99.99,,2013-02-12 18:32:00,
2013-02-12 13:41:00,35.0,27.0,-100.00,WNW,290,6.0,11.0,73,-99.99,,,-99.99,,2013-02-12 18:41:00,
2013-02-12 13:51:00,35.0,28.0,-100.00,WSW,240,6.0,11.0,73,-99.99,,,-99.99,,2013-02-12 18:51:00,
2013-02-12 14:02:00,35.0,27.0,-100.00,West,270,7.0,10.0,71,-99.99,,,-99.99,,2013-02-12 19:02:00,
2013-02-12 14:11:00,35.0,27.0,-100.00,WNW,285,6.0,11.0,71,-99.99,,,-99.99,,2013-02-12 19:11:00,
2013-02-12 14:21:00,35.0,27.0,-100.00,West,265,6.0,10.0,72,-99.99,,,-99.99,,2013-02-12 19:21:00,
2013-02-12 14:32:00,34.0,27.0,-100.00,SW,230,6.0,15.0,73,-99.99,,,-99.99,,2013-02-12 19:32:00,
2013-02-12 14:41:00,35.0,27.0,-100.00,West,270,6.0,12.0,73,-99.99,,,-99.99,,2013-02-12 19:41:00,
2013-02-12 14:51:00,35.0,27.0,-100.00,West,270,7.0,11.0,72,-99.99,,,-99.99,,2013-02-12 19:51:00,
2013-02-12 15:01:00,36.0,28.0,-100.00,WSW,245,7.0,14.0,70,-99.99,,,-99.99,,2013-02-12 20:01:00,
2013-02-12 15:11:00,36.0,27.0,-100.00,WNW,285,7.0,14.0,68,-99.99,,,-99.99,,2013-02-12 20:11:00,
2013-02-12 15:21:00,36.0,26.0,-100.00,West,260,9.0,14.0,68,-99.99,,,-99.99,,2013-02-12 20:21:00,
2013-02-12 15:32:00,36.0,26.0,-100.00,West,260,9.0,14.0,68,-99.99,,,-99.99,,2013-02-12 20:32:00,
2013-02-12 15:41:00,36.0,27.0,-100.00,West,265,9.0,15.0,68,-99.99,,,-99.99,,2013-02-12 20:41:00,
2013-02-12 15:52:00,36.0,26.0,-100.00,WSW,255,9.0,14.0,69,-99.99,,,-99.99,,2013-02-12 20:52:00,
2013-02-12 16:02:00,37.0,28.0,-100.00,WSW,240,7.0,14.0,69,-99.99,,,-99.99,,2013-02-12 21:02:00,
2013-02-12 16:11:00,37.0,28.0,-100.00,WSW,240,7.0,14.0,69,-99.99,,,-99.99,,2013-02-12 21:11:00,
2013-02-12 16:21:00,36.0,27.0,-100.00,WSW,250,5.0,14.0,69,-99.99,,,-99.99,,2013-02-12 21:21:00,
2013-02-12 16:32:00,36.0,27.0,-100.00,WSW,250,7.0,14.0,70,-99.99,,,-99.99,,2013-02-12 21:32:00,
2013-02-12 16:42:00,35.0,27.0,-100.00,WSW,255,9.0,16.0,70,-99.99,,,-99.99,,2013-02-12 21:42:00,
2013-02-12 16:52:00,35.0,27.0,-100.00,WSW,250,6.0,15.0,71,-99.99,,,-99.99,,2013-02-12 21:52:00,
2013-02-12 17:01:00,35.0,27.0,-100.00,West,275,7.0,12.0,72,-99.99,,,-99.99,,2013-02-12 22:01:00,
2013-02-12 17:12:00,35.0,27.0,-100.00,West,270,6.0,12.0,72,-99.99,,,-99.99,,2013-02-12 22:12:00,
2013-02-12 17:21:00,35.0,28.0,-100.00,SW,235,6.0,9.0,72,-99.99,,,-99.99,,2013-02-12 22:21:00,
2013-02-12 17:32:00,35.0,27.0,-100.00,West,275,6.0,12.0,71,-99.99,,,-99.99,,2013-02-12 22:32:00,
2013-02-12 17:42:00,35.0,27.0,-100.00,WSW,255,6.0,11.0,71,-99.99,,,-99.99,,2013-02-12 22:42:00,
2013-02-12 17:51:00,35.0,27.0,-100.00,WSW,255,4.0,12.0,72,-99.99,,,-99.99,,2013-02-12 22:51:00,
2013-02-12 18:01:00,35.0,28.0,-100.00,West,260,3.0,7.0,72,-99.99,,,-99.99,,2013-02-12 23:01:00,
2013-02-12 18:11:00,35.0,28.0,-100.00,West,270,6.0,10.0,72,-99.99,,,-99.99,,2013-02-12 23:11:00,
2013-02-12 18:21:00,35.0,28.0,-100.00,WSW,240,2.0,9.0,72,-99.99,,,-99.99,,2013-02-12 23:21:00,
2013-02-12 18:32:00,35.0,28.0,-100.00,West,260,2.0,7.0,73,-99.99,,,-99.99,,2013-02-12 23:32:00,
2013-02-12 18:42:00,35.0,28.0,-100.00,West,270,2.0,6.0,73,-99.99,,,-99.99,,2013-02-12 23:42:00,
2013-02-12 18:52:00,35.0,28.0,-100.00,SSW,210,2.0,4.0,73,-99.99,,,-99.99,,2013-02-12 23:52:00,
2013-02-12 19:02:00,35.0,28.0,-100.00,West,270,2.0,5.0,74,-99.99,,,-99.99,,2013-02-13 00:02:00,
2013-02-12 19:11:00,35.0,28.0,-100.00,West,280,1.0,4.0,74,-99.99,,,-99.99,,2013-02-13 00:11:00,
2013-02-12 19:21:00,35.0,28.0,-100.00,West,265,1.0,4.0,75,-99.99,,,-99.99,,2013-02-13 00:21:00,
2013-02-12 19:32:00,35.0,28.0,-100.00,SSW,210,2.0,3.0,75,-99.99,,,-99.99,,2013-02-13 00:32:00,
2013-02-12 19:42:00,35.0,28.0,-100.00,SW,215,2.0,4.0,76,-99.99,,,-99.99,,2013-02-13 00:42:00,
2013-02-12 19:52:00,35.0,29.0,-100.00,WSW,240,1.0,4.0,77,-99.99,,,-99.99,,2013-02-13 00:52:00,
2013-02-12 20:01:00,35.0,28.0,-100.00,West,275,2.0,3.0,77,-99.99,,,-99.99,,2013-02-13 01:01:00,
2013-02-12 20:11:00,35.0,29.0,-100.00,West,270,2.0,4.0,77,-99.99,,,-99.99,,2013-02-13 01:11:00,
2013-02-12 20:21:00,35.0,29.0,-100.00,NNW,335,7.0,9.0,78,-99.99,,,-99.99,,2013-02-13 01:21:00,
2013-02-12 20:31:00,34.0,28.0,-100.00,NW,320,7.0,11.0,78,-99.99,,,-99.99,,2013-02-13 01:31:00,
2013-02-12 20:42:00,34.0,28.0,-100.00,NNW,340,4.0,8.0,79,-99.99,,,-99.99,,2013-02-13 01:42:00,
2013-02-12 20:51:00,34.0,28.0,-100.00,NNW,335,4.0,7.0,79,-99.99,,,-99.99,,2013-02-13 01:51:00,
2013-02-12 21:01:00,34.0,28.0,-100.00,NW,310,3.0,7.0,79,-99.99,,,-99.99,,2013-02-13 02:01:00,
2013-02-12 21:11:00,34.0,28.0,-100.00,NW,310,3.0,7.0,79,-99.99,,,-99.99,,2013-02-13 02:11:00,
2013-02-12 21:22:00,33.0,28.0,-100.00,NNW,340,4.0,7.0,80,-99.99,,,-99.99,,2013-02-13 02:22:00,
2013-02-12 21:32:00,33.0,28.0,-100.00,NW,315,4.0,6.0,80,-99.99,,,-99.99,,2013-02-13 02:32:00,
2013-02-12 21:42:00,33.0,28.0,-100.00,NW,310,4.0,7.0,80,-99.99,,,-99.99,,2013-02-13 02:42:00,
2013-02-12 21:52:00,33.0,28.0,-100.00,NW,325,4.0,7.0,80,-99.99,,,-99.99,,2013-02-13 02:52:00,
2013-02-12 22:01:00,33.0,28.0,-100.00,NNW,330,3.0,7.0,81,-99.99,,,-99.99,,2013-02-13 03:01:00,
2013-02-12 22:11:00,32.0,27.0,-100.00,NNW,330,5.0,8.0,81,-99.99,,,-99.99,,2013-02-13 03:11:00,
2013-02-12 22:21:00,32.0,27.0,-100.00,NW,315,2.0,7.0,81,-99.99,,,-99.99,,2013-02-13 03:21:00,
2013-02-12 22:32:00,32.0,27.0,-100.00,NW,305,2.0,4.0,82,-99.99,,,-99.99,,2013-02-13 03:32:00,
2013-02-12 22:42:00,32.0,27.0,-100.00,NW,305,2.0,4.0,82,-99.99,,,-99.99,,2013-02-13 03:42:00,
2013-02-12 22:51:00,31.0,27.0,-100.00,NW,320,2.0,5.0,82,-99.99,,,-99.99,,2013-02-13 03:51:00,
2013-02-12 23:01:00,31.0,27.0,-100.00,NNW,335,2.0,6.0,82,-99.99,,,-99.99,,2013-02-13 04:01:00,
2013-02-12 23:11:00,31.0,27.0,-100.00,NW,305,3.0,6.0,83,-99.99,,,-99.99,,2013-02-13 04:11:00,
2013-02-12 23:21:00,31.0,26.0,-100.00,NNW,330,3.0,5.0,83,-99.99,,,-99.99,,2013-02-13 04:21:00,
2013-02-12 23:32:00,30.0,26.0,-100.00,WNW,300,2.0,5.0,84,-99.99,,,-99.99,,2013-02-13 04:32:00,
2013-02-12 23:41:00,30.0,26.0,-100.00,West,275,2.0,7.0,84,-99.99,,,-99.99,,2013-02-13 04:41:00,
2013-02-12 23:51:00,30.0,26.0,-100.00,West,280,4.0,6.0,84,-99.99,,,-99.99,,2013-02-13 04:51:00,